LXP395 SCCF-SCSE

Flight info

Callsign LXP395
Flight time 1h 12m
Altitude 37000
Route CEPAM4C CEPAM UQ815 MORMI UT252 BOMEG BOMEG1A
Aircraft A321/M-SDE3FGHIRWY/LB1

Departure

Time 2026-04-22 03:06
Airport El Loa Airport (SCCF)

Arrival

Time 2026-04-22 04:18
Airport La Florida Airport (SCSE)
Time Latitude Longitude Altitude Speed Heading
2026-04-22 02:44 -22.49594 -68.90796 7510 ft 0 kts
2026-04-22 02:57 -22.49612 -68.90798 7500 ft 4 kts 14°
2026-04-22 02:57 -22.49636 -68.90809 7501 ft 4 kts 41°
2026-04-22 02:57 -22.49651 -68.90831 7494 ft 4 kts 74°
2026-04-22 02:57 -22.49654 -68.90857 7496 ft 2 kts 93°
2026-04-22 02:58 -22.49654 -68.90858 7496 ft 0 kts 94°
2026-04-22 03:00 -22.49654 -68.90850 7498 ft 4 kts 94°
2026-04-22 03:00 -22.49659 -68.90796 7498 ft 8 kts 105°
2026-04-22 03:00 -22.49705 -68.90774 7501 ft 9 kts 178°
2026-04-22 03:00 -22.49788 -68.90773 7493 ft 13 kts 160°
2026-04-22 03:01 -22.49814 -68.90691 7509 ft 12 kts 94°
2026-04-22 03:01 -22.49821 -68.90592 7519 ft 16 kts 94°
2026-04-22 03:01 -22.49831 -68.90445 7514 ft 22 kts 94°
2026-04-22 03:01 -22.49843 -68.90271 7544 ft 25 kts 94°
2026-04-22 03:02 -22.49856 -68.90081 7557 ft 26 kts 94°
2026-04-22 03:02 -22.49869 -68.89897 7571 ft 24 kts 93°
2026-04-22 03:02 -22.49880 -68.89717 7580 ft 24 kts 94°
2026-04-22 03:02 -22.49893 -68.89534 7590 ft 24 kts 94°
2026-04-22 03:03 -22.49905 -68.89354 7601 ft 24 kts 94°
2026-04-22 03:03 -22.49918 -68.89174 7612 ft 24 kts 95°
2026-04-22 03:03 -22.49929 -68.89011 7623 ft 18 kts 94°
2026-04-22 03:03 -22.49935 -68.88902 7631 ft 12 kts 93°
2026-04-22 03:04 -22.49977 -68.88843 7636 ft 7 kts 168°
2026-04-22 03:04 -22.50040 -68.88843 7637 ft 11 kts 186°
2026-04-22 03:04 -22.50102 -68.88864 7636 ft 8 kts 234°
2026-04-22 03:04 -22.50108 -68.88903 7633 ft 3 kts 271°
2026-04-22 03:05 -22.50108 -68.88907 7633 ft 0 kts 271°
2026-04-22 03:05 -22.50100 -68.89077 7623 ft 63 kts 274°
2026-04-22 03:05 -22.50045 -68.89836 7572 ft 136 kts 274°
2026-04-22 03:05 -22.49958 -68.91076 7562 ft 188 kts 275°
2026-04-22 03:06 -22.49855 -68.92481 8481 ft 185 kts 274°
2026-04-22 03:06 -22.49763 -68.93929 8671 ft 204 kts 274°
2026-04-22 03:06 -22.49664 -68.95529 8817 ft 221 kts 274°
2026-04-22 03:06 -22.49557 -68.97231 9078 ft 232 kts 274°
2026-04-22 03:07 -22.49446 -68.99010 9313 ft 244 kts 275°
2026-04-22 03:07 -22.49354 -69.00886 9511 ft 258 kts 268°
2026-04-22 03:07 -22.49898 -69.02794 9681 ft 279 kts 235°
2026-04-22 03:07 -22.51390 -69.04173 10042 ft 291 kts 202°
2026-04-22 03:08 -22.53371 -69.04716 10566 ft 298 kts 186°
2026-04-22 03:08 -22.55447 -69.04893 11178 ft 301 kts 182°
2026-04-22 03:08 -22.57546 -69.05018 11853 ft 303 kts 184°
2026-04-22 03:08 -22.59659 -69.05211 12484 ft 306 kts 186°
2026-04-22 03:09 -22.61785 -69.05509 13129 ft 310 kts 189°
2026-04-22 03:09 -22.63923 -69.05906 13767 ft 313 kts 191°
2026-04-22 03:09 -22.66099 -69.06375 14377 ft 317 kts 192°
2026-04-22 03:09 -22.68240 -69.06871 14923 ft 320 kts 193°
2026-04-22 03:10 -22.70431 -69.07389 15460 ft 325 kts 193°
2026-04-22 03:10 -22.72653 -69.07912 15991 ft 329 kts 193°
2026-04-22 03:10 -22.74918 -69.08377 16520 ft 334 kts 187°
2026-04-22 03:10 -22.77262 -69.08383 17038 ft 340 kts 175°
2026-04-22 03:11 -22.79630 -69.08105 17550 ft 345 kts 175°
2026-04-22 03:11 -22.82042 -69.07820 17972 ft 353 kts 175°
2026-04-22 03:11 -22.84500 -69.07533 18379 ft 362 kts 176°
2026-04-22 03:11 -22.87059 -69.07238 18503 ft 378 kts 176°
2026-04-22 03:12 -22.89727 -69.06932 18609 ft 393 kts 176°
2026-04-22 03:12 -22.95284 -69.06298 19291 ft 406 kts 176°
2026-04-22 03:12 -22.98102 -69.05976 19747 ft 409 kts 176°
2026-04-22 03:13 -23.00944 -69.05650 20199 ft 412 kts 176°
2026-04-22 03:13 -23.03762 -69.05326 20660 ft 414 kts 176°
2026-04-22 03:13 -23.06640 -69.04994 21114 ft 416 kts 176°
2026-04-22 03:13 -23.09528 -69.04658 21558 ft 419 kts 177°
2026-04-22 03:14 -23.12440 -69.04323 22016 ft 422 kts 177°
2026-04-22 03:14 -23.15365 -69.03988 22449 ft 424 kts 177°
2026-04-22 03:14 -23.18309 -69.03650 22865 ft 427 kts 177°
2026-04-22 03:14 -23.21273 -69.03307 23301 ft 429 kts 178°
2026-04-22 03:15 -23.24250 -69.02962 23725 ft 432 kts 178°
2026-04-22 03:15 -23.27248 -69.02615 24076 ft 434 kts 178°
2026-04-22 03:15 -23.30264 -69.02268 24421 ft 437 kts 179°
2026-04-22 03:15 -23.33291 -69.02207 24730 ft 434 kts 188°
2026-04-22 03:16 -23.36279 -69.02636 25053 ft 434 kts 194°
2026-04-22 03:16 -23.39265 -69.03167 25395 ft 436 kts 194°
2026-04-22 03:16 -23.42273 -69.03695 25718 ft 439 kts 194°
2026-04-22 03:16 -23.45298 -69.04222 26032 ft 442 kts 194°
2026-04-22 03:17 -23.48346 -69.04754 26353 ft 445 kts 194°
2026-04-22 03:17 -23.51410 -69.05286 26677 ft 447 kts 194°
2026-04-22 03:17 -23.54497 -69.05821 27010 ft 450 kts 194°
2026-04-22 03:17 -23.57597 -69.06364 27324 ft 453 kts 195°
2026-04-22 03:18 -23.60719 -69.06914 27649 ft 456 kts 195°
2026-04-22 03:18 -23.63856 -69.07466 27970 ft 458 kts 195°
2026-04-22 03:18 -23.67015 -69.08019 28274 ft 461 kts 195°
2026-04-22 03:18 -23.70188 -69.08574 28566 ft 463 kts 195°
2026-04-22 03:19 -23.73380 -69.09135 28864 ft 466 kts 195°
2026-04-22 03:19 -23.76592 -69.09699 29143 ft 469 kts 195°
2026-04-22 03:19 -23.79822 -69.10264 29409 ft 471 kts 195°
2026-04-22 03:19 -23.83068 -69.10829 29672 ft 473 kts 195°
2026-04-22 03:20 -23.86283 -69.11387 29944 ft 475 kts 195°
2026-04-22 03:20 -23.89556 -69.11958 30194 ft 478 kts 196°
2026-04-22 03:20 -23.92843 -69.12534 30422 ft 480 kts 196°
2026-04-22 03:20 -23.96149 -69.13114 30646 ft 482 kts 196°
2026-04-22 03:21 -23.99471 -69.13696 30871 ft 484 kts 196°
2026-04-22 03:21 -24.02807 -69.14282 31098 ft 486 kts 196°
2026-04-22 03:21 -24.06153 -69.14872 31328 ft 489 kts 196°
2026-04-22 03:21 -24.09520 -69.15467 31573 ft 491 kts 196°
2026-04-22 03:22 -24.12888 -69.16062 31927 ft 490 kts 196°
2026-04-22 03:22 -24.16256 -69.16655 32274 ft 490 kts 196°
2026-04-22 03:22 -24.19619 -69.17246 32616 ft 490 kts 196°
2026-04-22 03:22 -24.22989 -69.17836 32950 ft 490 kts 197°
2026-04-22 03:23 -24.26357 -69.18428 33279 ft 490 kts 197°
2026-04-22 03:23 -24.29719 -69.19024 33600 ft 490 kts 197°
2026-04-22 03:23 -24.33097 -69.19626 33919 ft 491 kts 197°
2026-04-22 03:23 -24.36470 -69.20227 34241 ft 491 kts 197°
2026-04-22 03:24 -24.39845 -69.20828 34535 ft 491 kts 197°
2026-04-22 03:24 -24.43221 -69.21423 34848 ft 491 kts 197°
2026-04-22 03:24 -24.46595 -69.22013 35155 ft 491 kts 197°
2026-04-22 03:24 -24.49968 -69.22605 35462 ft 491 kts 197°
2026-04-22 03:25 -24.53336 -69.23201 35789 ft 490 kts 198°
2026-04-22 03:25 -24.56707 -69.23798 36100 ft 490 kts 198°
2026-04-22 03:25 -24.60070 -69.24401 36406 ft 489 kts 198°
2026-04-22 03:25 -24.63426 -69.25004 36708 ft 488 kts 198°
2026-04-22 03:26 -24.66779 -69.25604 36989 ft 488 kts 198°
2026-04-22 03:26 -24.70130 -69.26201 37167 ft 488 kts 198°
2026-04-22 03:26 -24.76807 -69.27390 37210 ft 484 kts 198°
2026-04-22 03:27 -24.83454 -69.28574 37218 ft 483 kts 198°
2026-04-22 03:27 -24.90051 -69.29746 37222 ft 483 kts 199°
2026-04-22 03:28 -24.96689 -69.30928 37232 ft 483 kts 199°
2026-04-22 03:28 -25.03316 -69.32117 37239 ft 483 kts 199°
2026-04-22 03:29 -25.09951 -69.33304 37244 ft 483 kts 199°
2026-04-22 03:29 -25.16590 -69.34489 37245 ft 482 kts 199°
2026-04-22 03:30 -25.23212 -69.35683 37251 ft 482 kts 199°
2026-04-22 03:30 -25.29842 -69.36873 37245 ft 482 kts 199°
2026-04-22 03:31 -25.36469 -69.38060 37242 ft 482 kts 199°
2026-04-22 03:31 -25.43055 -69.39236 37237 ft 482 kts 199°
2026-04-22 03:32 -25.49672 -69.40430 37229 ft 482 kts 199°
2026-04-22 03:32 -25.56225 -69.41797 37228 ft 471 kts 207°
2026-04-22 03:33 -25.62380 -69.44082 37221 ft 466 kts 210°
2026-04-22 03:33 -25.68528 -69.46401 37208 ft 466 kts 210°
2026-04-22 03:34 -25.74666 -69.48716 37196 ft 466 kts 210°
2026-04-22 03:34 -25.80825 -69.51036 37189 ft 466 kts 210°
2026-04-22 03:35 -25.86971 -69.53351 37181 ft 466 kts 210°
2026-04-22 03:35 -25.93117 -69.55670 37174 ft 466 kts 210°
2026-04-22 03:36 -25.99253 -69.57989 37169 ft 466 kts 210°
2026-04-22 03:36 -26.05385 -69.60309 37167 ft 466 kts 210°
2026-04-22 03:37 -26.11523 -69.62631 37174 ft 466 kts 210°
2026-04-22 03:37 -26.17654 -69.64955 37168 ft 465 kts 211°
2026-04-22 03:38 -26.23776 -69.67286 37163 ft 465 kts 211°
2026-04-22 03:38 -26.29905 -69.69615 37171 ft 465 kts 211°
2026-04-22 03:39 -26.35987 -69.71926 37165 ft 465 kts 211°
2026-04-22 03:39 -26.42106 -69.74256 37165 ft 464 kts 211°
2026-04-22 03:40 -26.48221 -69.76587 37168 ft 464 kts 211°
2026-04-22 03:40 -26.54335 -69.78911 37166 ft 464 kts 211°
2026-04-22 03:41 -26.60449 -69.81248 37167 ft 464 kts 211°
2026-04-22 03:41 -26.66548 -69.83590 37168 ft 463 kts 211°
2026-04-22 03:42 -26.72656 -69.85937 37163 ft 463 kts 211°
2026-04-22 03:42 -26.77727 -69.87875 37163 ft 463 kts 211°
2026-04-22 03:43 -26.83799 -69.90199 37163 ft 462 kts 212°
2026-04-22 03:43 -26.89874 -69.92537 37160 ft 461 kts 212°
2026-04-22 03:44 -26.95947 -69.94875 37163 ft 461 kts 212°
2026-04-22 03:44 -27.02016 -69.97214 37156 ft 461 kts 212°
2026-04-22 03:45 -27.08082 -69.99548 37155 ft 460 kts 212°
2026-04-22 03:45 -27.14135 -70.01886 37149 ft 460 kts 212°
2026-04-22 03:46 -27.20181 -70.04227 37152 ft 460 kts 212°
2026-04-22 03:46 -27.26184 -70.06556 37147 ft 459 kts 212°
2026-04-22 03:47 -27.32250 -70.08869 37148 ft 460 kts 211°
2026-04-22 03:47 -27.38332 -70.11135 37150 ft 460 kts 211°
2026-04-22 03:48 -27.44411 -70.13399 37150 ft 460 kts 211°
2026-04-22 03:48 -27.50484 -70.15685 37151 ft 459 kts 212°
2026-04-22 03:49 -27.56544 -70.17985 37144 ft 459 kts 212°
2026-04-22 03:49 -27.62600 -70.20278 37152 ft 459 kts 212°
2026-04-22 03:50 -27.68662 -70.22567 37157 ft 459 kts 212°
2026-04-22 03:50 -27.74721 -70.24865 37148 ft 459 kts 212°
2026-04-22 03:51 -27.80729 -70.27150 37154 ft 459 kts 212°
2026-04-22 03:51 -27.86781 -70.29452 37154 ft 459 kts 212°
2026-04-22 03:52 -27.92838 -70.31745 37156 ft 459 kts 212°
2026-04-22 03:52 -27.98894 -70.34043 37156 ft 459 kts 212°
2026-04-22 03:53 -28.04942 -70.36349 37151 ft 458 kts 212°
2026-04-22 03:53 -28.10989 -70.38659 37154 ft 459 kts 212°
2026-04-22 03:54 -28.17039 -70.40972 37159 ft 459 kts 212°
2026-04-22 03:54 -28.23089 -70.43285 37151 ft 459 kts 212°
2026-04-22 03:55 -28.29138 -70.45599 37152 ft 459 kts 212°
2026-04-22 03:55 -28.35188 -70.47919 37143 ft 458 kts 212°
2026-04-22 03:56 -28.41244 -70.50248 36967 ft 461 kts 212°
2026-04-22 03:56 -28.44309 -70.51434 35904 ft 472 kts 212°
2026-04-22 03:56 -28.47412 -70.52713 34956 ft 471 kts 217°
2026-04-22 03:57 -28.50263 -70.54434 34184 ft 458 kts 225°
2026-04-22 03:57 -28.52761 -70.56588 33275 ft 444 kts 234°
2026-04-22 03:57 -28.54988 -70.58992 32544 ft 440 kts 234°
2026-04-22 03:57 -28.57182 -70.61364 31868 ft 438 kts 234°
2026-04-22 03:58 -28.59413 -70.63769 31264 ft 436 kts 233°
2026-04-22 03:58 -28.61606 -70.66131 30721 ft 433 kts 233°
2026-04-22 03:58 -28.63781 -70.68475 30184 ft 429 kts 233°
2026-04-22 03:58 -28.65914 -70.70776 29547 ft 426 kts 232°
2026-04-22 03:59 -28.68054 -70.73091 28916 ft 423 kts 232°
2026-04-22 03:59 -28.70173 -70.75391 28317 ft 419 kts 232°
2026-04-22 03:59 -28.72459 -70.77488 27697 ft 428 kts 221°
2026-04-22 03:59 -28.75171 -70.79009 26992 ft 442 kts 207°
2026-04-22 04:00 -28.78196 -70.79776 26475 ft 450 kts 193°
2026-04-22 04:00 -28.81352 -70.79893 25987 ft 451 kts 187°
2026-04-22 04:00 -28.84470 -70.79927 25515 ft 446 kts 187°
2026-04-22 04:00 -28.87562 -70.79969 24995 ft 443 kts 187°
2026-04-22 04:01 -28.90631 -70.80021 24499 ft 438 kts 187°
2026-04-22 04:01 -28.93661 -70.80078 23985 ft 432 kts 187°
2026-04-22 04:01 -28.96649 -70.80131 23175 ft 426 kts 186°
2026-04-22 04:01 -28.99587 -70.80184 22596 ft 419 kts 186°
2026-04-22 04:02 -29.02489 -70.80239 22091 ft 415 kts 186°
2026-04-22 04:02 -29.05359 -70.80295 21573 ft 411 kts 186°
2026-04-22 04:02 -29.08202 -70.80347 21055 ft 407 kts 186°
2026-04-22 04:02 -29.11026 -70.80397 20538 ft 404 kts 186°
2026-04-22 04:03 -29.13830 -70.80449 20017 ft 402 kts 185°
2026-04-22 04:03 -29.16622 -70.80502 19512 ft 400 kts 185°
2026-04-22 04:03 -29.19398 -70.80554 18997 ft 398 kts 185°
2026-04-22 04:03 -29.22166 -70.80606 18499 ft 397 kts 185°
2026-04-22 04:04 -29.24921 -70.80655 17948 ft 395 kts 185°
2026-04-22 04:04 -29.27627 -70.80699 17472 ft 392 kts 184°
2026-04-22 04:04 -29.30350 -70.80740 16984 ft 389 kts 184°
2026-04-22 04:04 -29.33051 -70.80787 16507 ft 387 kts 184°
2026-04-22 04:05 -29.35732 -70.80837 16078 ft 384 kts 184°
2026-04-22 04:05 -29.38392 -70.80882 15626 ft 381 kts 184°
2026-04-22 04:05 -29.41031 -70.80923 15192 ft 378 kts 184°
2026-04-22 04:05 -29.43652 -70.80963 14767 ft 375 kts 183°
2026-04-22 04:06 -29.46251 -70.81004 14341 ft 373 kts 183°
2026-04-22 04:06 -29.48837 -70.81047 13901 ft 371 kts 183°
2026-04-22 04:06 -29.51410 -70.81093 13449 ft 368 kts 183°
2026-04-22 04:06 -29.53962 -70.81138 13023 ft 365 kts 182°
2026-04-22 04:07 -29.56493 -70.81190 12592 ft 362 kts 183°
2026-04-22 04:07 -29.59004 -70.81290 12162 ft 360 kts 184°
2026-04-22 04:07 -29.61500 -70.81418 11734 ft 358 kts 184°
2026-04-22 04:07 -29.63978 -70.81557 11311 ft 355 kts 184°
2026-04-22 04:08 -29.66436 -70.81692 10878 ft 352 kts 183°
2026-04-22 04:08 -29.68876 -70.81822 10423 ft 351 kts 183°
2026-04-22 04:08 -29.71291 -70.81948 10186 ft 341 kts 182°
2026-04-22 04:08 -29.73626 -70.82056 10070 ft 329 kts 181°
2026-04-22 04:09 -29.75884 -70.82105 9792 ft 322 kts 180°
2026-04-22 04:09 -29.78136 -70.82118 9260 ft 324 kts 180°
2026-04-22 04:09 -29.80374 -70.82228 8842 ft 321 kts 190°
2026-04-22 04:09 -29.82488 -70.82953 8429 ft 315 kts 206°
2026-04-22 04:10 -29.84393 -70.84158 8029 ft 311 kts 211°
2026-04-22 04:10 -29.86238 -70.85374 7635 ft 308 kts 211°
2026-04-22 04:10 -29.87915 -70.86861 7236 ft 298 kts 230°
2026-04-22 04:10 -29.89017 -70.88769 6875 ft 277 kts 244°
2026-04-22 04:11 -29.89881 -70.90678 6525 ft 261 kts 244°
2026-04-22 04:11 -29.90703 -70.92478 6202 ft 250 kts 243°
2026-04-22 04:11 -29.91697 -70.94086 5874 ft 246 kts 224°
2026-04-22 04:11 -29.93096 -70.95160 5545 ft 238 kts 206°
2026-04-22 04:12 -29.94526 -70.95975 5275 ft 220 kts 207°
2026-04-22 04:12 -29.95844 -70.96732 4990 ft 205 kts 207°
2026-04-22 04:12 -29.97089 -70.97452 4719 ft 196 kts 207°
2026-04-22 04:12 -29.98170 -70.98348 4468 ft 188 kts 220°
2026-04-22 04:13 -29.99114 -70.99350 4222 ft 182 kts 231°
2026-04-22 04:13 -29.99715 -71.00599 3981 ft 176 kts 252°
2026-04-22 04:13 -29.99887 -71.01976 3755 ft 172 kts 271°
2026-04-22 04:13 -29.99678 -71.03315 3525 ft 169 kts 291°
2026-04-22 04:14 -29.99074 -71.04455 3296 ft 166 kts 313°
2026-04-22 04:14 -29.98271 -71.05390 3081 ft 163 kts 315°
2026-04-22 04:14 -29.97503 -71.06346 2863 ft 162 kts 305°
2026-04-22 04:14 -29.96978 -71.07492 2668 ft 162 kts 296°
2026-04-22 04:15 -29.96481 -71.08654 2460 ft 161 kts 296°
2026-04-22 04:15 -29.95987 -71.09807 2248 ft 160 kts 296°
2026-04-22 04:15 -29.95498 -71.10953 2037 ft 159 kts 296°
2026-04-22 04:15 -29.95013 -71.12087 1857 ft 153 kts 296°
2026-04-22 04:16 -29.94553 -71.13162 1634 ft 147 kts 296°
2026-04-22 04:16 -29.93660 -71.15238 1251 ft 143 kts 298°
2026-04-22 04:16 -29.93227 -71.16260 1057 ft 141 kts 294°
2026-04-22 04:17 -29.92804 -71.17269 870 ft 139 kts 297°
2026-04-22 04:17 -29.92362 -71.18256 659 ft 137 kts 296°
2026-04-22 04:17 -29.91951 -71.19243 490 ft 135 kts 296°
2026-04-22 04:17 -29.91592 -71.20078 477 ft 81 kts 296°
2026-04-22 04:18 -29.91442 -71.20426 477 ft 32 kts 297°
2026-04-22 04:18 -29.91347 -71.20645 482 ft 30 kts 296°
2026-04-22 04:18 -29.91297 -71.20800 479 ft 14 kts 273°
2026-04-22 04:18 -29.91271 -71.20880 477 ft 9 kts 339°
2026-04-22 04:19 -29.91258 -71.20843 474 ft 7 kts 114°
2026-04-22 04:19 -29.91297 -71.20756 475 ft 18 kts 118°
2026-04-22 04:19 -29.91357 -71.20621 477 ft 18 kts 117°
2026-04-22 04:19 -29.91413 -71.20489 477 ft 18 kts 116°
2026-04-22 04:20 -29.91471 -71.20356 474 ft 18 kts 117°
2026-04-22 04:20 -29.91518 -71.20276 477 ft 8 kts 151°
2026-04-22 04:20 -29.91558 -71.20280 478 ft 3 kts 198°
2026-04-22 04:20 -29.91579 -71.20289 477 ft 3 kts 203°
2026-04-22 04:21 -29.91604 -71.20297 480 ft 4 kts 182°
2026-04-22 04:21 -29.91630 -71.20275 475 ft 5 kts 130°
2026-04-22 04:21 -29.91650 -71.20243 473 ft 4 kts 134°
2026-04-22 04:21 -29.91675 -71.20237 477 ft 3 kts 189°
2026-04-22 04:22 -29.91690 -71.20246 477 ft 2 kts 205°
2026-04-22 04:22 -29.91701 -71.20252 479 ft 1 kts 206°
2026-04-22 04:22 -29.91706 -71.20255 475 ft 0 kts 206°